Year,Month,Day,Hour,Minute,Value (Times are PST for temperature in C)
2012,08,16,00,00,17.80
2012,08,16,00,01,17.80
2012,08,16,00,02,17.80
2012,08,16,00,03,17.80
2012,08,16,00,04,17.80
2012,08,16,00,05,17.80
2012,08,16,00,06,17.80
2012,08,16,00,07,17.80
2012,08,16,00,08,17.80
2012,08,16,00,09,17.80
2012,08,16,00,10,17.80
2012,08,16,00,11,17.80
2012,08,16,00,12,17.80
2012,08,16,00,13,17.80
2012,08,16,00,14,17.80
2012,08,16,00,15,17.80
2012,08,16,00,16,17.80
2012,08,16,00,17,17.80
2012,08,16,00,18,17.80
2012,08,16,00,19,17.80
2012,08,16,00,20,17.80
2012,08,16,00,21,17.80
2012,08,16,00,22,17.70
2012,08,16,00,23,17.70
2012,08,16,00,24,17.70
2012,08,16,00,25,17.70
2012,08,16,00,26,17.70
2012,08,16,00,27,17.60
2012,08,16,00,28,17.60
2012,08,16,00,29,17.60
2012,08,16,00,30,17.60
2012,08,16,00,31,17.50
2012,08,16,00,32,17.50
2012,08,16,00,33,17.50
2012,08,16,00,34,17.50
2012,08,16,00,35,17.40
2012,08,16,00,36,17.40
2012,08,16,00,37,17.40
2012,08,16,00,38,17.40
2012,08,16,00,39,17.40
2012,08,16,00,40,17.30
2012,08,16,00,41,17.30
2012,08,16,00,42,17.30
2012,08,16,00,43,17.30
2012,08,16,00,44,17.30
2012,08,16,00,45,17.30
2012,08,16,00,46,17.30
2012,08,16,00,47,17.20
2012,08,16,00,48,17.20
2012,08,16,00,49,17.20
2012,08,16,00,50,17.10
2012,08,16,00,51,17.10
2012,08,16,00,52,17.10
2012,08,16,00,53,17.00
2012,08,16,00,54,17.00
2012,08,16,00,55,17.00
2012,08,16,00,56,17.00
2012,08,16,00,57,17.00
2012,08,16,00,58,17.00
2012,08,16,00,59,16.90
2012,08,16,01,00,16.90
2012,08,16,01,01,16.90
2012,08,16,01,02,16.90
2012,08,16,01,03,16.90
2012,08,16,01,04,16.90
2012,08,16,01,05,16.90
2012,08,16,01,06,16.90
2012,08,16,01,07,16.90
2012,08,16,01,08,16.90
2012,08,16,01,09,16.90
2012,08,16,01,10,16.90
2012,08,16,01,11,17.00
2012,08,16,01,12,17.00
2012,08,16,01,13,17.00
2012,08,16,01,14,17.00
2012,08,16,01,15,17.00
2012,08,16,01,16,17.00
2012,08,16,01,17,16.90
2012,08,16,01,18,16.90
2012,08,16,01,19,16.90
2012,08,16,01,20,16.90
2012,08,16,01,21,16.90
2012,08,16,01,22,16.90
2012,08,16,01,23,16.80
2012,08,16,01,24,16.80
2012,08,16,01,25,16.80
2012,08,16,01,26,16.80
2012,08,16,01,27,16.80
2012,08,16,01,28,16.80
2012,08,16,01,29,16.80
2012,08,16,01,30,16.70
2012,08,16,01,31,16.70
2012,08,16,01,32,16.70
2012,08,16,01,33,16.70
2012,08,16,01,34,16.70
2012,08,16,01,35,16.70
2012,08,16,01,36,16.70
2012,08,16,01,37,16.70
2012,08,16,01,38,16.70
2012,08,16,01,39,16.70
2012,08,16,01,40,16.70
2012,08,16,01,41,16.60
2012,08,16,01,42,16.60
2012,08,16,01,43,16.60
2012,08,16,01,44,16.50
2012,08,16,01,45,16.40
2012,08,16,01,46,16.40
2012,08,16,01,47,16.40
2012,08,16,01,48,16.40
2012,08,16,01,49,16.40
2012,08,16,01,50,16.40
2012,08,16,01,51,16.30
2012,08,16,01,52,16.30
2012,08,16,01,53,16.30
2012,08,16,01,54,16.30
2012,08,16,01,55,16.30
2012,08,16,01,56,16.30
2012,08,16,01,57,16.30
2012,08,16,01,58,16.20
2012,08,16,01,59,16.20
2012,08,16,02,00,16.20
2012,08,16,02,01,16.20
2012,08,16,02,02,16.20
2012,08,16,02,03,16.20
2012,08,16,02,04,16.10
2012,08,16,02,05,16.10
2012,08,16,02,06,16.10
2012,08,16,02,07,16.10
2012,08,16,02,08,16.10
2012,08,16,02,09,16.10
2012,08,16,02,10,16.10
2012,08,16,02,11,16.10
2012,08,16,02,12,16.10
2012,08,16,02,13,16.10
2012,08,16,02,14,16.10
2012,08,16,02,15,16.00
2012,08,16,02,16,15.90
2012,08,16,02,17,15.90
2012,08,16,02,18,15.90
2012,08,16,02,19,15.90
2012,08,16,02,20,15.80
2012,08,16,02,21,15.80
2012,08,16,02,22,15.80
2012,08,16,02,23,15.80
2012,08,16,02,24,15.80
2012,08,16,02,25,15.80
2012,08,16,02,26,15.80
2012,08,16,02,27,15.80
2012,08,16,02,28,15.70
2012,08,16,02,29,15.70
2012,08,16,02,30,15.70
2012,08,16,02,31,15.70
2012,08,16,02,32,15.60
2012,08,16,02,33,15.60
2012,08,16,02,34,15.60
2012,08,16,02,35,15.60
2012,08,16,02,36,15.60
2012,08,16,02,37,15.60
2012,08,16,02,38,15.60
2012,08,16,02,39,15.60
2012,08,16,02,40,15.70
2012,08,16,02,41,15.70
2012,08,16,02,42,15.70
2012,08,16,02,43,15.70
2012,08,16,02,44,15.70
2012,08,16,02,45,15.70
2012,08,16,02,46,15.70
2012,08,16,02,47,15.70
2012,08,16,02,48,15.70
2012,08,16,02,49,15.70
2012,08,16,02,50,15.70
2012,08,16,02,51,15.70
2012,08,16,02,52,15.70
2012,08,16,02,53,15.70
2012,08,16,02,54,15.70
2012,08,16,02,55,15.70
2012,08,16,02,56,15.70
2012,08,16,02,57,15.70
2012,08,16,02,58,15.60
2012,08,16,02,59,15.60
2012,08,16,03,00,15.60
2012,08,16,03,01,15.60
2012,08,16,03,02,15.60
2012,08,16,03,03,15.60
2012,08,16,03,04,15.60
2012,08,16,03,05,15.60
2012,08,16,03,06,15.60
2012,08,16,03,07,15.60
2012,08,16,03,08,15.60
2012,08,16,03,09,15.60
2012,08,16,03,10,15.60
2012,08,16,03,11,15.60
2012,08,16,03,12,15.60
2012,08,16,03,13,15.50
2012,08,16,03,14,15.50
2012,08,16,03,15,15.50
2012,08,16,03,16,15.50
2012,08,16,03,17,15.40
2012,08,16,03,18,15.40
2012,08,16,03,19,15.40
2012,08,16,03,20,15.30
2012,08,16,03,21,15.30
2012,08,16,03,22,15.30
2012,08,16,03,23,15.30
2012,08,16,03,24,15.30
2012,08,16,03,25,15.20
2012,08,16,03,26,15.20
2012,08,16,03,27,15.20
2012,08,16,03,28,15.20
2012,08,16,03,29,15.20
2012,08,16,03,30,15.20
2012,08,16,03,31,15.10
2012,08,16,03,32,15.10
2012,08,16,03,33,15.10
2012,08,16,03,34,15.10
2012,08,16,03,35,15.10
2012,08,16,03,36,15.10
2012,08,16,03,37,15.00
2012,08,16,03,38,15.00
2012,08,16,03,39,15.00
2012,08,16,03,40,15.00
2012,08,16,03,41,15.00
2012,08,16,03,42,15.00
2012,08,16,03,43,14.90
2012,08,16,03,44,14.90
2012,08,16,03,45,14.90
2012,08,16,03,46,14.90
2012,08,16,03,47,14.90
2012,08,16,03,48,14.90
2012,08,16,03,49,14.90
2012,08,16,03,50,14.90
2012,08,16,03,51,14.90
2012,08,16,03,52,14.90
2012,08,16,03,53,14.90
2012,08,16,03,54,14.90
2012,08,16,03,55,14.90
2012,08,16,03,56,14.90
2012,08,16,03,57,14.90
2012,08,16,03,58,14.90
2012,08,16,03,59,14.90
2012,08,16,04,00,14.90
2012,08,16,04,01,14.90
2012,08,16,04,02,14.90
2012,08,16,04,03,14.90
2012,08,16,04,04,14.90
2012,08,16,04,05,14.90
2012,08,16,04,06,14.90
2012,08,16,04,07,14.90
2012,08,16,04,08,14.90
2012,08,16,04,09,14.90
2012,08,16,04,10,14.90
2012,08,16,04,11,14.90
2012,08,16,04,12,14.90
2012,08,16,04,13,14.90
2012,08,16,04,14,15.00
2012,08,16,04,15,15.00
2012,08,16,04,16,15.00
2012,08,16,04,17,15.00
2012,08,16,04,18,15.00
2012,08,16,04,19,15.00
2012,08,16,04,20,14.90
2012,08,16,04,21,14.90
2012,08,16,04,22,14.90
2012,08,16,04,23,14.90
2012,08,16,04,24,14.90
2012,08,16,04,25,14.90
2012,08,16,04,26,14.80
2012,08,16,04,27,14.80
2012,08,16,04,28,14.80
2012,08,16,04,29,14.80
2012,08,16,04,30,14.80
2012,08,16,04,31,14.80
2012,08,16,04,32,14.80
2012,08,16,04,33,14.80
2012,08,16,04,34,14.80
2012,08,16,04,35,14.80
2012,08,16,04,36,14.80
2012,08,16,04,37,14.80
2012,08,16,04,38,14.80
2012,08,16,04,39,14.80
2012,08,16,04,40,14.80
2012,08,16,04,41,14.80
2012,08,16,04,42,14.80
2012,08,16,04,43,14.80
2012,08,16,04,44,14.80
2012,08,16,04,45,14.80
2012,08,16,04,46,14.70
2012,08,16,04,47,14.70
2012,08,16,04,48,14.70
2012,08,16,04,49,14.70
2012,08,16,04,50,14.70
2012,08,16,04,51,14.70
2012,08,16,04,52,14.70
2012,08,16,04,53,14.70
2012,08,16,04,54,14.70
2012,08,16,04,55,14.70
2012,08,16,04,56,14.70
2012,08,16,04,57,14.80
2012,08,16,04,58,14.80
2012,08,16,04,59,14.80
2012,08,16,05,00,14.80
2012,08,16,05,01,14.80
2012,08,16,05,02,14.80
2012,08,16,05,03,14.80
2012,08,16,05,04,14.80
2012,08,16,05,05,14.80
2012,08,16,05,06,14.80
2012,08,16,05,07,14.80
2012,08,16,05,08,14.80
2012,08,16,05,09,14.80
2012,08,16,05,10,14.80
2012,08,16,05,11,14.80
2012,08,16,05,12,14.80
2012,08,16,05,13,14.80
2012,08,16,05,14,14.80
2012,08,16,05,15,14.80
2012,08,16,05,16,14.80
2012,08,16,05,17,14.80
2012,08,16,05,18,14.70
2012,08,16,05,19,14.70
2012,08,16,05,20,14.70
2012,08,16,05,21,14.70
2012,08,16,05,22,14.70
2012,08,16,05,23,14.70
2012,08,16,05,24,14.70
2012,08,16,05,25,14.80
2012,08,16,05,26,14.80
2012,08,16,05,27,14.80
2012,08,16,05,28,14.80
2012,08,16,05,29,14.80
2012,08,16,05,30,14.80
2012,08,16,05,31,14.80
2012,08,16,05,32,14.80
2012,08,16,05,33,14.80
2012,08,16,05,34,14.80
2012,08,16,05,35,14.80
2012,08,16,05,36,14.80
2012,08,16,05,37,14.80
2012,08,16,05,38,14.80
2012,08,16,05,39,14.70
2012,08,16,05,40,14.70
2012,08,16,05,41,14.70
2012,08,16,05,42,14.70
2012,08,16,05,43,14.60
2012,08,16,05,44,14.60
2012,08,16,05,45,14.60
2012,08,16,05,46,14.60
2012,08,16,05,47,14.60
2012,08,16,05,48,14.50
2012,08,16,05,49,14.50
2012,08,16,05,50,14.50
2012,08,16,05,51,14.50
2012,08,16,05,52,14.50
2012,08,16,05,53,14.40
2012,08,16,05,54,14.40
2012,08,16,05,55,14.40
2012,08,16,05,56,14.40
2012,08,16,05,57,14.40
2012,08,16,05,58,14.40
2012,08,16,05,59,14.40
2012,08,16,06,00,14.40
2012,08,16,06,01,14.40
2012,08,16,06,02,14.40
2012,08,16,06,03,14.40
2012,08,16,06,04,14.40
2012,08,16,06,05,14.40
2012,08,16,06,06,14.40
2012,08,16,06,07,14.40
2012,08,16,06,08,14.40
2012,08,16,06,09,14.40
2012,08,16,06,10,14.40
2012,08,16,06,11,14.40
2012,08,16,06,12,14.40
2012,08,16,06,13,14.40
2012,08,16,06,14,14.40
2012,08,16,06,15,14.40
2012,08,16,06,16,14.40
2012,08,16,06,17,14.40
2012,08,16,06,18,14.40
2012,08,16,06,19,14.40
2012,08,16,06,20,14.40
2012,08,16,06,21,14.30
2012,08,16,06,22,14.30
2012,08,16,06,23,14.30
2012,08,16,06,24,14.30
2012,08,16,06,25,14.30
2012,08,16,06,26,14.20
2012,08,16,06,27,14.20
2012,08,16,06,28,14.20
2012,08,16,06,29,14.20
2012,08,16,06,30,14.30
2012,08,16,06,31,14.30
2012,08,16,06,32,14.30
2012,08,16,06,33,14.30
2012,08,16,06,34,14.30
2012,08,16,06,35,14.30
2012,08,16,06,36,14.30
2012,08,16,06,37,14.30
2012,08,16,06,38,14.30
2012,08,16,06,39,14.30
2012,08,16,06,40,14.30
2012,08,16,06,41,14.30
2012,08,16,06,42,14.30
2012,08,16,06,43,14.30
2012,08,16,06,44,14.40
2012,08,16,06,45,14.40
2012,08,16,06,46,14.40
2012,08,16,06,47,14.40
2012,08,16,06,48,14.40
2012,08,16,06,49,14.40
2012,08,16,06,50,14.50
2012,08,16,06,51,14.50
2012,08,16,06,52,14.50
2012,08,16,06,53,14.60
2012,08,16,06,54,14.70
2012,08,16,06,55,14.70
2012,08,16,06,56,14.80
2012,08,16,06,57,14.90
2012,08,16,06,58,14.90
2012,08,16,06,59,15.00
2012,08,16,07,00,15.10
2012,08,16,07,01,15.20
2012,08,16,07,02,15.20
2012,08,16,07,03,15.30
2012,08,16,07,04,15.30
2012,08,16,07,05,15.40
2012,08,16,07,06,15.40
2012,08,16,07,07,15.50
2012,08,16,07,08,15.60
2012,08,16,07,09,15.60
2012,08,16,07,10,15.70
2012,08,16,07,11,15.70
2012,08,16,07,12,15.80
2012,08,16,07,13,15.80
2012,08,16,07,14,15.90
2012,08,16,07,15,16.10
2012,08,16,07,16,16.10
2012,08,16,07,17,16.20
2012,08,16,07,18,16.30
2012,08,16,07,19,16.30
2012,08,16,07,20,16.40
2012,08,16,07,21,16.50
2012,08,16,07,22,16.60
2012,08,16,07,23,16.70
2012,08,16,07,24,16.70
2012,08,16,07,25,16.70
2012,08,16,07,26,16.80
2012,08,16,07,27,16.90
2012,08,16,07,28,17.00
2012,08,16,07,29,17.10
2012,08,16,07,30,17.30
2012,08,16,07,31,17.40
2012,08,16,07,32,17.50
2012,08,16,07,33,17.60
2012,08,16,07,34,17.70
2012,08,16,07,35,17.70
2012,08,16,07,36,17.80
2012,08,16,07,37,17.80
2012,08,16,07,38,17.90
2012,08,16,07,39,17.90
2012,08,16,07,40,17.90
2012,08,16,07,41,17.90
2012,08,16,07,42,18.00
2012,08,16,07,43,18.10
2012,08,16,07,44,18.20
2012,08,16,07,45,18.20
2012,08,16,07,46,18.30
2012,08,16,07,47,18.40
2012,08,16,07,48,18.50
2012,08,16,07,49,18.50
2012,08,16,07,50,18.50
2012,08,16,07,51,18.60
2012,08,16,07,52,18.70
2012,08,16,07,53,18.70
2012,08,16,07,54,18.80
2012,08,16,07,55,18.90
2012,08,16,07,56,19.10
2012,08,16,07,57,19.20
2012,08,16,07,58,19.40
2012,08,16,07,59,19.40
2012,08,16,08,00,19.60
2012,08,16,08,01,19.70
2012,08,16,08,02,19.80
2012,08,16,08,03,19.90
2012,08,16,08,04,19.90
2012,08,16,08,05,20.00
2012,08,16,08,06,20.10
2012,08,16,08,07,20.20
2012,08,16,08,08,20.40
2012,08,16,08,09,20.50
2012,08,16,08,10,20.70
2012,08,16,08,11,20.80
2012,08,16,08,12,20.90
2012,08,16,08,13,21.00
2012,08,16,08,14,21.20
2012,08,16,08,15,21.30
2012,08,16,08,16,21.40
2012,08,16,08,17,21.50
2012,08,16,08,18,21.60
2012,08,16,08,19,21.60
2012,08,16,08,20,21.70
2012,08,16,08,21,21.80
2012,08,16,08,22,21.90
2012,08,16,08,23,22.00
2012,08,16,08,24,22.00
2012,08,16,08,25,22.00
2012,08,16,08,26,22.00
2012,08,16,08,27,22.10
2012,08,16,08,28,22.20
2012,08,16,08,29,22.20
2012,08,16,08,30,22.30
2012,08,16,08,31,22.40
2012,08,16,08,32,22.50
2012,08,16,08,33,22.60
2012,08,16,08,34,22.60
2012,08,16,08,35,22.60
2012,08,16,08,36,22.60
2012,08,16,08,37,22.70
2012,08,16,08,38,22.80
2012,08,16,08,39,22.90
2012,08,16,08,40,22.90
2012,08,16,08,41,22.90
2012,08,16,08,42,22.90
2012,08,16,08,43,22.90
2012,08,16,08,44,22.90
2012,08,16,08,45,22.90
2012,08,16,08,46,22.90
2012,08,16,08,47,22.90
2012,08,16,08,48,22.90
2012,08,16,08,49,23.00
2012,08,16,08,50,23.10
2012,08,16,08,51,23.10
2012,08,16,08,52,23.20
2012,08,16,08,53,23.20
2012,08,16,08,54,23.30
2012,08,16,08,55,23.30
2012,08,16,08,56,23.30
2012,08,16,08,57,23.30
2012,08,16,08,58,23.40
2012,08,16,08,59,23.40
2012,08,16,09,00,23.50
2012,08,16,09,01,23.60
2012,08,16,09,02,23.60
2012,08,16,09,03,23.60
2012,08,16,09,04,23.50
2012,08,16,09,05,23.40
2012,08,16,09,06,23.60
2012,08,16,09,07,23.60
2012,08,16,09,08,23.70
2012,08,16,09,09,23.70
2012,08,16,09,10,23.70
2012,08,16,09,11,23.70
2012,08,16,09,12,23.70
2012,08,16,09,13,23.70
2012,08,16,09,14,23.70
2012,08,16,09,15,23.70
2012,08,16,09,16,23.70
2012,08,16,09,17,23.70
2012,08,16,09,18,23.80
2012,08,16,09,19,23.80
2012,08,16,09,20,23.80
2012,08,16,09,21,23.80
2012,08,16,09,22,23.80
2012,08,16,09,23,23.90
2012,08,16,09,24,24.00
2012,08,16,09,25,24.10
2012,08,16,09,26,24.10
2012,08,16,09,27,24.10
2012,08,16,09,28,24.10
2012,08,16,09,29,24.20
2012,08,16,09,30,24.20
2012,08,16,09,31,24.20
2012,08,16,09,32,24.10
2012,08,16,09,33,24.10
2012,08,16,09,34,24.20
2012,08,16,09,35,24.30
2012,08,16,09,36,24.30
2012,08,16,09,37,24.40
2012,08,16,09,38,24.40
2012,08,16,09,39,24.40
2012,08,16,09,40,24.40
2012,08,16,09,41,24.40
2012,08,16,09,42,24.40
2012,08,16,09,43,24.40
2012,08,16,09,44,24.40
2012,08,16,09,45,24.40
2012,08,16,09,46,24.40
2012,08,16,09,47,24.40
2012,08,16,09,48,24.40
2012,08,16,09,49,24.50
2012,08,16,09,50,24.50
2012,08,16,09,51,24.60
2012,08,16,09,52,24.60
2012,08,16,09,53,24.60
2012,08,16,09,54,24.70
2012,08,16,09,55,24.70
2012,08,16,09,56,24.80
2012,08,16,09,57,24.90
2012,08,16,09,58,24.90
2012,08,16,09,59,24.90
2012,08,16,10,00,24.90
2012,08,16,10,01,24.90
2012,08,16,10,02,24.90
2012,08,16,10,03,25.00
2012,08,16,10,04,25.00
2012,08,16,10,05,24.90
2012,08,16,10,06,24.90
2012,08,16,10,07,24.90
2012,08,16,10,08,24.90
2012,08,16,10,09,24.90
2012,08,16,10,10,24.80
2012,08,16,10,11,24.80
2012,08,16,10,12,24.70
2012,08,16,10,13,24.70
2012,08,16,10,14,24.70
2012,08,16,10,15,24.70
2012,08,16,10,16,24.70
2012,08,16,10,17,24.70
2012,08,16,10,18,24.70
2012,08,16,10,19,24.70
2012,08,16,10,20,24.70
2012,08,16,10,21,24.70
2012,08,16,10,22,24.80
2012,08,16,10,23,24.90
2012,08,16,10,24,24.90
2012,08,16,10,25,25.00
2012,08,16,10,26,25.00
2012,08,16,10,27,25.10
2012,08,16,10,28,25.20
2012,08,16,10,29,25.20
2012,08,16,10,30,25.30
2012,08,16,10,31,25.30
2012,08,16,10,32,25.20
2012,08,16,10,33,25.20
2012,08,16,10,34,25.30
2012,08,16,10,35,25.30
2012,08,16,10,36,25.30
2012,08,16,10,37,25.30
2012,08,16,10,38,25.40
2012,08,16,10,39,25.50
2012,08,16,10,40,25.60
2012,08,16,10,41,25.60
2012,08,16,10,42,25.60
2012,08,16,10,43,25.50
2012,08,16,10,44,25.40
2012,08,16,10,45,25.30
2012,08,16,10,46,25.20
2012,08,16,10,47,25.10
2012,08,16,10,48,25.10
2012,08,16,10,49,25.10
2012,08,16,10,50,25.10
2012,08,16,10,51,25.10
2012,08,16,10,52,25.20
2012,08,16,10,53,25.20
2012,08,16,10,54,25.20
2012,08,16,10,55,25.40
2012,08,16,10,56,25.40
2012,08,16,10,57,25.50
2012,08,16,10,58,25.50
2012,08,16,10,59,25.50
2012,08,16,11,00,25.50
2012,08,16,11,01,25.50
2012,08,16,11,02,25.60
2012,08,16,11,03,25.60
2012,08,16,11,04,25.60
2012,08,16,11,05,25.60
2012,08,16,11,06,25.60
2012,08,16,11,07,25.60
2012,08,16,11,08,25.60
2012,08,16,11,09,25.50
2012,08,16,11,10,25.50
2012,08,16,11,11,25.50
2012,08,16,11,12,25.50
2012,08,16,11,13,25.50
2012,08,16,11,14,25.50
2012,08,16,11,15,25.50
2012,08,16,11,16,25.60
2012,08,16,11,17,25.70
2012,08,16,11,18,25.80
2012,08,16,11,19,26.00
2012,08,16,11,20,26.20
2012,08,16,11,21,26.40
2012,08,16,11,22,26.60
2012,08,16,11,23,26.90
2012,08,16,11,24,27.10
2012,08,16,11,25,27.20
2012,08,16,11,26,27.30
2012,08,16,11,27,27.30
2012,08,16,11,28,27.40
2012,08,16,11,29,27.60
2012,08,16,11,30,27.70
2012,08,16,11,31,27.80
2012,08,16,11,32,27.80
2012,08,16,11,33,27.80
2012,08,16,11,34,27.70
2012,08,16,11,35,27.60
2012,08,16,11,36,27.60
2012,08,16,11,37,27.50
2012,08,16,11,38,27.40
2012,08,16,11,39,27.50
2012,08,16,11,40,27.60
2012,08,16,11,41,27.60
2012,08,16,11,42,27.60
2012,08,16,11,43,27.50
2012,08,16,11,44,27.60
2012,08,16,11,45,27.60
2012,08,16,11,46,27.60
2012,08,16,11,47,27.60
2012,08,16,11,48,27.50
2012,08,16,11,49,27.50
2012,08,16,11,50,27.60
2012,08,16,11,51,27.70
2012,08,16,11,52,27.60
2012,08,16,11,53,27.60
2012,08,16,11,54,27.60
2012,08,16,11,55,27.50
2012,08,16,11,56,27.40
2012,08,16,11,57,27.40
2012,08,16,11,58,27.30
2012,08,16,11,59,27.30
2012,08,16,12,00,27.20
2012,08,16,12,01,27.10
2012,08,16,12,02,26.90
2012,08,16,12,03,26.90
2012,08,16,12,04,27.00
2012,08,16,12,05,27.10
2012,08,16,12,06,27.10
2012,08,16,12,07,27.20
2012,08,16,12,08,27.30
2012,08,16,12,09,27.30
2012,08,16,12,10,27.30
2012,08,16,12,11,27.50
2012,08,16,12,12,27.60
2012,08,16,12,13,27.70
2012,08,16,12,14,27.60
2012,08,16,12,15,27.70
2012,08,16,12,16,27.70
2012,08,16,12,17,27.70
2012,08,16,12,18,27.80
2012,08,16,12,19,27.90
2012,08,16,12,20,27.90
2012,08,16,12,21,27.80
2012,08,16,12,22,27.70
2012,08,16,12,23,27.70
2012,08,16,12,24,27.70
2012,08,16,12,25,27.70
2012,08,16,12,26,27.60
2012,08,16,12,27,27.60
2012,08,16,12,28,27.70
2012,08,16,12,29,27.80
2012,08,16,12,30,28.00
2012,08,16,12,31,28.10
2012,08,16,12,32,28.20
2012,08,16,12,33,28.40
2012,08,16,12,34,28.50
2012,08,16,12,35,28.60
2012,08,16,12,36,28.60
2012,08,16,12,37,28.50
2012,08,16,12,38,28.40
2012,08,16,12,39,28.40
2012,08,16,12,40,28.30
2012,08,16,12,41,28.40
2012,08,16,12,42,28.50
2012,08,16,12,43,28.70
2012,08,16,12,44,28.80
2012,08,16,12,45,28.80
2012,08,16,12,46,28.80
2012,08,16,12,47,28.70
2012,08,16,12,48,28.70
2012,08,16,12,49,28.60
2012,08,16,12,50,28.70
2012,08,16,12,51,28.70
2012,08,16,12,52,28.70
2012,08,16,12,53,28.70
2012,08,16,12,54,28.70
2012,08,16,12,55,28.70
2012,08,16,12,56,28.80
2012,08,16,12,57,28.80
2012,08,16,12,58,28.90
2012,08,16,12,59,28.90
2012,08,16,13,00,29.00
2012,08,16,13,01,29.10
2012,08,16,13,02,29.20
2012,08,16,13,03,29.20
2012,08,16,13,04,29.10
2012,08,16,13,05,29.10
2012,08,16,13,06,29.10
2012,08,16,13,07,29.20
2012,08,16,13,08,29.20
2012,08,16,13,09,29.20
2012,08,16,13,10,29.10
2012,08,16,13,11,29.00
2012,08,16,13,12,28.90
2012,08,16,13,13,28.90
2012,08,16,13,14,28.90
2012,08,16,13,15,28.90
2012,08,16,13,16,29.00
2012,08,16,13,17,29.10
2012,08,16,13,18,29.20
2012,08,16,13,19,29.20
2012,08,16,13,20,29.30
2012,08,16,13,21,29.30
2012,08,16,13,22,29.30
2012,08,16,13,23,29.30
2012,08,16,13,24,29.30
2012,08,16,13,25,29.40
2012,08,16,13,26,29.30
2012,08,16,13,27,29.30
2012,08,16,13,28,29.30
2012,08,16,13,29,29.30
2012,08,16,13,30,29.30
2012,08,16,13,31,29.30
2012,08,16,13,32,29.30
2012,08,16,13,33,29.30
2012,08,16,13,34,29.20
2012,08,16,13,35,29.10
2012,08,16,13,36,29.00
2012,08,16,13,37,28.90
2012,08,16,13,38,28.90
2012,08,16,13,39,28.90
2012,08,16,13,40,29.00
2012,08,16,13,41,29.10
2012,08,16,13,42,29.20
2012,08,16,13,43,29.30
2012,08,16,13,44,29.40
2012,08,16,13,45,29.50
2012,08,16,13,46,29.50
2012,08,16,13,47,29.60
2012,08,16,13,48,29.50
2012,08,16,13,49,29.50
2012,08,16,13,50,29.50
2012,08,16,13,51,29.40
2012,08,16,13,52,29.40
2012,08,16,13,53,29.40
2012,08,16,13,54,29.40
2012,08,16,13,55,29.50
2012,08,16,13,56,29.60
2012,08,16,13,57,29.50
2012,08,16,13,58,29.40
2012,08,16,13,59,29.30
2012,08,16,14,00,29.20
2012,08,16,14,01,29.20
2012,08,16,14,02,29.20
2012,08,16,14,03,29.20
2012,08,16,14,04,29.30
2012,08,16,14,05,29.20
2012,08,16,14,06,29.10
2012,08,16,14,07,29.10
2012,08,16,14,08,29.10
2012,08,16,14,09,29.20
2012,08,16,14,10,29.20
2012,08,16,14,11,29.30
2012,08,16,14,12,29.40
2012,08,16,14,13,29.40
2012,08,16,14,14,29.50
2012,08,16,14,15,29.50
2012,08,16,14,16,29.30
2012,08,16,14,17,29.20
2012,08,16,14,18,29.20
2012,08,16,14,19,29.10
2012,08,16,14,20,29.00
2012,08,16,14,21,28.90
2012,08,16,14,22,28.90
2012,08,16,14,23,28.90
2012,08,16,14,24,29.10
2012,08,16,14,25,29.20
2012,08,16,14,26,29.20
2012,08,16,14,27,29.30
2012,08,16,14,28,29.30
2012,08,16,14,29,29.40
2012,08,16,14,30,29.40
2012,08,16,14,31,29.50
2012,08,16,14,32,29.60
2012,08,16,14,33,29.70
2012,08,16,14,34,29.60
2012,08,16,14,35,29.60
2012,08,16,14,36,29.50
2012,08,16,14,37,29.50
2012,08,16,14,38,29.60
2012,08,16,14,39,29.60
2012,08,16,14,40,29.60
2012,08,16,14,41,29.60
2012,08,16,14,42,29.70
2012,08,16,14,43,29.70
2012,08,16,14,44,29.70
2012,08,16,14,45,29.70
2012,08,16,14,46,29.80
2012,08,16,14,47,29.80
2012,08,16,14,48,29.80
2012,08,16,14,49,29.80
2012,08,16,14,50,29.70
2012,08,16,14,51,29.80
2012,08,16,14,52,29.80
2012,08,16,14,53,29.90
2012,08,16,14,54,29.90
2012,08,16,14,55,30.00
2012,08,16,14,56,30.10
2012,08,16,14,57,30.10
2012,08,16,14,58,30.10
2012,08,16,14,59,30.00
2012,08,16,15,00,29.90
2012,08,16,15,01,29.80
2012,08,16,15,02,29.70
2012,08,16,15,03,29.70
2012,08,16,15,04,29.60
2012,08,16,15,05,29.60
2012,08,16,15,06,29.60
2012,08,16,15,07,29.70
2012,08,16,15,08,29.80
2012,08,16,15,09,29.90
2012,08,16,15,10,30.00
2012,08,16,15,11,30.20
2012,08,16,15,12,30.30
2012,08,16,15,13,30.20
2012,08,16,15,14,30.10
2012,08,16,15,15,30.10
2012,08,16,15,16,30.10
2012,08,16,15,17,30.20
2012,08,16,15,18,30.10
2012,08,16,15,19,30.10
2012,08,16,15,20,30.10
2012,08,16,15,21,30.10
2012,08,16,15,22,30.10
2012,08,16,15,23,30.20
2012,08,16,15,24,30.10
2012,08,16,15,25,30.10
2012,08,16,15,26,30.10
2012,08,16,15,27,30.10
2012,08,16,15,28,30.10
2012,08,16,15,29,30.10
2012,08,16,15,30,30.20
2012,08,16,15,31,30.30
2012,08,16,15,32,30.30
2012,08,16,15,33,30.30
2012,08,16,15,34,30.30
2012,08,16,15,35,30.30
2012,08,16,15,36,30.30
2012,08,16,15,37,30.40
2012,08,16,15,38,30.50
2012,08,16,15,39,30.60
2012,08,16,15,40,30.70
2012,08,16,15,41,30.70
2012,08,16,15,42,30.80
2012,08,16,15,43,30.80
2012,08,16,15,44,30.90
2012,08,16,15,45,30.80
2012,08,16,15,46,30.80
2012,08,16,15,47,30.80
2012,08,16,15,48,30.80
2012,08,16,15,49,30.80
2012,08,16,15,50,30.90
2012,08,16,15,51,30.90
2012,08,16,15,52,30.90
2012,08,16,15,53,30.90
2012,08,16,15,54,30.90
2012,08,16,15,55,30.90
2012,08,16,15,56,30.90
2012,08,16,15,57,30.80
2012,08,16,15,58,30.70
2012,08,16,15,59,30.70
2012,08,16,16,00,30.70
2012,08,16,16,01,30.70
2012,08,16,16,02,30.80
2012,08,16,16,03,30.70
2012,08,16,16,04,30.60
2012,08,16,16,05,30.40
2012,08,16,16,06,30.30
2012,08,16,16,07,30.20
2012,08,16,16,08,30.20
2012,08,16,16,09,30.20
2012,08,16,16,10,30.00
2012,08,16,16,11,29.90
2012,08,16,16,12,29.90
2012,08,16,16,13,30.00
2012,08,16,16,14,30.10
2012,08,16,16,15,30.10
2012,08,16,16,16,30.20
2012,08,16,16,17,30.20
2012,08,16,16,18,30.20
2012,08,16,16,19,30.20
2012,08,16,16,20,30.00
2012,08,16,16,21,29.90
2012,08,16,16,22,29.70
2012,08,16,16,23,29.60
2012,08,16,16,24,29.60
2012,08,16,16,25,29.60
2012,08,16,16,26,29.50
2012,08,16,16,27,29.50
2012,08,16,16,28,29.60
2012,08,16,16,29,29.70
2012,08,16,16,30,29.80
2012,08,16,16,31,29.80
2012,08,16,16,32,29.80
2012,08,16,16,33,29.80
2012,08,16,16,34,29.90
2012,08,16,16,35,29.90
2012,08,16,16,36,30.00
2012,08,16,16,37,30.00
2012,08,16,16,38,29.90
2012,08,16,16,39,30.00
2012,08,16,16,40,30.10
2012,08,16,16,41,30.10
2012,08,16,16,42,30.20
2012,08,16,16,43,30.30
2012,08,16,16,44,30.30
2012,08,16,16,45,30.30
2012,08,16,16,46,30.20
2012,08,16,16,47,30.20
2012,08,16,16,48,30.20
2012,08,16,16,49,30.20
2012,08,16,16,50,30.10
2012,08,16,16,51,30.00
2012,08,16,16,52,29.90
2012,08,16,16,53,29.90
2012,08,16,16,54,29.90
2012,08,16,16,55,29.90
2012,08,16,16,56,29.80
2012,08,16,16,57,29.80
2012,08,16,16,58,29.70
2012,08,16,16,59,29.60
2012,08,16,17,00,29.50
2012,08,16,17,01,29.60
2012,08,16,17,02,29.60
2012,08,16,17,03,29.70
2012,08,16,17,04,29.70
2012,08,16,17,05,29.80
2012,08,16,17,06,29.80
2012,08,16,17,07,29.90
2012,08,16,17,08,29.90
2012,08,16,17,09,30.10
2012,08,16,17,10,29.90
2012,08,16,17,11,29.90
2012,08,16,17,12,29.80
2012,08,16,17,13,29.80
2012,08,16,17,14,29.90
2012,08,16,17,15,29.90
2012,08,16,17,16,29.90
2012,08,16,17,17,30.00
2012,08,16,17,18,30.00
2012,08,16,17,19,29.90